Orbital Elements at Epoch 2459000.5 (2020-May-31.0) TDB
Reference: JPL 19 (heliocentric ecliptic J2000)
Element | Value | Uncertainty (1-sigma) | Units |
e | .2073738440063867 | 4.4424e-08 | |
a | 2.566721138318281 | 9.9209e-09 | au |
q | 2.034450309372771 | 1.161e-07 | au |
i | 2.934539202384484 | 3.909e-06 | deg |
node | 320.6784666791842 | 9.0454e-05 | deg |
peri | 301.6323752645152 | 9.0905e-05 | deg |
M | 347.4382036541141 | 8.419e-06 | deg |
tp | 2459052.910186516556 (2020-Jul-22.41018652) | 3.5084e-05 | TDB |
period | 1501.987982167806 4.11 | 8.7082e-06 2.384e-08 | d yr |
n | .2396823438496593 | 1.3896e-09 | deg/d |
Q | 3.098991967263792 | 1.1978e-08 | au |
|
| | Orbit Determination Parameters
Additional Information
|